Time,TemperatureF,DewpointF,PressureIn,WindDirection,WindDirectionDegrees,WindSpeedMPH,WindSpeedGustMPH,Humidity,HourlyPrecipIn,Conditions,Clouds,dailyrainin,SoftwareType,DateUTC
2013-11-08 00:02:00,31.3,30.3,30.23,West,270,1.0,3.0,96,0.00,CLR,,0.00,WeatherDisplay:10.37,2013-11-08 06:02:00,
2013-11-08 00:03:00,38.1,31.9,30.15,North,0,0.0,0.0,78,0.00,CLR,,0.00,WeatherDisplay:10.37,2013-11-08 06:03:00,
2013-11-08 00:12:00,31.1,30.3,30.23,West,270,0.0,5.0,97,0.00,CLR,,0.00,WeatherDisplay:10.37,2013-11-08 06:12:00,
2013-11-08 00:13:00,38.1,31.9,30.15,North,0,0.0,0.0,78,0.00,CLR,,0.00,WeatherDisplay:10.37,2013-11-08 06:13:00,
2013-11-08 00:22:00,30.8,30.3,30.23,NW,314,0.0,2.0,98,0.00,CLR,,0.00,WeatherDisplay:10.37,2013-11-08 06:22:00,
2013-11-08 00:23:00,38.1,31.9,30.15,North,0,0.0,0.0,78,0.00,CLR,,0.00,WeatherDisplay:10.37,2013-11-08 06:23:00,
2013-11-08 00:33:00,30.6,30.1,30.23,NW,315,0.0,1.0,98,0.00,CLR,,0.00,WeatherDisplay:10.37,2013-11-08 06:33:00,
2013-11-08 00:43:00,29.9,29.4,30.23,NW,315,0.0,2.0,98,0.00,CLR,,0.00,WeatherDisplay:10.37,2013-11-08 06:43:00,
2013-11-08 00:53:00,30.2,30.0,30.23,SW,230,1.0,3.0,99,0.00,CLR,,0.00,WeatherDisplay:10.37,2013-11-08 06:53:00,
2013-11-08 01:03:00,30.2,30.0,30.23,WSW,257,0.0,3.0,99,0.00,CLR,,0.00,WeatherDisplay:10.37,2013-11-08 07:03:00,
2013-11-08 01:13:00,29.5,29.2,30.23,West,270,0.0,0.0,99,0.00,CLR,,0.00,WeatherDisplay:10.37,2013-11-08 07:13:00,
2013-11-08 01:23:00,28.8,28.5,30.23,West,270,0.0,0.0,99,0.00,CLR,,0.00,WeatherDisplay:10.37,2013-11-08 07:23:00,
2013-11-08 01:33:00,28.0,27.8,30.23,West,270,0.0,0.0,99,0.00,CLR,,0.00,WeatherDisplay:10.37,2013-11-08 07:33:00,
2013-11-08 01:43:00,27.7,27.4,30.24,West,270,0.0,0.0,99,0.00,CLR,,0.00,WeatherDisplay:10.37,2013-11-08 07:43:00,
2013-11-08 01:53:00,27.9,27.6,30.24,West,270,1.0,2.0,99,0.00,CLR,,0.00,WeatherDisplay:10.37,2013-11-08 07:53:00,
2013-11-08 02:03:00,28.0,27.8,30.24,West,270,1.0,2.0,99,0.00,CLR,,0.00,WeatherDisplay:10.37,2013-11-08 08:03:00,
2013-11-08 02:13:00,28.0,27.8,30.23,West,270,0.0,0.0,99,0.00,CLR,,0.00,WeatherDisplay:10.37,2013-11-08 08:13:00,
2013-11-08 02:23:00,28.0,27.8,30.24,SSE,167,0.0,1.0,99,0.00,CLR,,0.00,WeatherDisplay:10.37,2013-11-08 08:23:00,
2013-11-08 02:33:00,27.9,27.7,30.24,SE,135,0.0,0.0,99,0.00,CLR,,0.00,WeatherDisplay:10.37,2013-11-08 08:33:00,
2013-11-08 02:43:00,28.0,27.8,30.24,SE,135,0.0,0.0,99,0.00,CLR,,0.00,WeatherDisplay:10.37,2013-11-08 08:43:00,
2013-11-08 02:53:00,27.9,27.6,30.24,SE,135,0.0,0.0,99,0.00,CLR,,0.00,WeatherDisplay:10.37,2013-11-08 08:53:00,
2013-11-08 03:03:00,27.7,27.4,30.23,SE,135,1.0,2.0,99,0.00,CLR,,0.00,WeatherDisplay:10.37,2013-11-08 09:03:00,
2013-11-08 03:13:00,27.7,27.4,30.24,SE,135,1.0,3.0,99,0.00,CLR,,0.00,WeatherDisplay:10.37,2013-11-08 09:13:00,
2013-11-08 03:23:00,27.7,27.4,30.24,SE,135,1.0,3.0,99,0.00,CLR,,0.00,WeatherDisplay:10.37,2013-11-08 09:23:00,
2013-11-08 03:33:00,27.5,27.3,30.25,SSW,209,0.0,2.0,99,0.00,CLR,,0.00,WeatherDisplay:10.37,2013-11-08 09:33:00,
2013-11-08 03:43:00,27.7,27.4,30.25,SW,225,0.0,2.0,99,0.00,CLR,,0.00,WeatherDisplay:10.37,2013-11-08 09:43:00,
2013-11-08 03:53:00,27.5,27.3,30.25,SW,225,0.0,0.0,99,0.00,CLR,,0.00,WeatherDisplay:10.37,2013-11-08 09:53:00,
2013-11-08 04:03:00,27.3,27.1,30.25,SE,139,2.0,3.0,99,0.00,CLR,,0.00,WeatherDisplay:10.37,2013-11-08 10:03:00,
2013-11-08 04:13:00,27.1,26.9,30.25,SE,135,2.0,5.0,99,0.00,CLR,,0.00,WeatherDisplay:10.37,2013-11-08 10:13:00,
2013-11-08 04:23:00,26.8,26.5,30.25,SE,135,0.0,3.0,99,0.00,CLR,,0.00,WeatherDisplay:10.37,2013-11-08 10:23:00,
2013-11-08 04:33:00,26.6,26.4,30.25,SE,135,1.0,3.0,99,0.00,CLR,,0.00,WeatherDisplay:10.37,2013-11-08 10:33:00,
2013-11-08 04:43:00,26.3,26.0,30.25,SE,135,1.0,2.0,99,0.00,CLR,,0.00,WeatherDisplay:10.37,2013-11-08 10:43:00,
2013-11-08 04:53:00,26.2,26.0,30.25,SE,135,0.0,5.0,99,0.00,CLR,,0.00,WeatherDisplay:10.37,2013-11-08 10:53:00,
2013-11-08 05:03:00,26.2,26.0,30.25,SE,135,1.0,3.0,99,0.00,CLR,,0.00,WeatherDisplay:10.37,2013-11-08 11:03:00,
2013-11-08 05:13:00,25.9,25.6,30.25,SE,135,1.0,2.0,99,0.00,CLR,,0.00,WeatherDisplay:10.37,2013-11-08 11:13:00,
2013-11-08 05:23:00,26.1,25.9,30.25,SE,135,1.0,3.0,99,0.00,CLR,,0.00,WeatherDisplay:10.37,2013-11-08 11:23:00,
2013-11-08 05:33:00,26.1,25.8,30.25,SE,135,0.0,2.0,99,0.00,CLR,,0.00,WeatherDisplay:10.37,2013-11-08 11:33:00,
2013-11-08 05:43:00,25.3,25.1,30.25,SE,135,0.0,1.0,99,0.00,CLR,,0.00,WeatherDisplay:10.37,2013-11-08 11:43:00,
2013-11-08 05:53:00,25.7,25.5,30.25,SE,131,1.0,3.0,99,0.00,CLR,,0.00,WeatherDisplay:10.37,2013-11-08 11:53:00,
2013-11-08 06:03:00,26.4,26.2,30.25,SSE,153,1.0,6.0,99,0.00,CLR,,0.00,WeatherDisplay:10.37,2013-11-08 12:03:00,
2013-11-08 06:13:00,27.6,27.3,30.25,South,185,2.0,5.0,99,0.00,CLR,,0.00,WeatherDisplay:10.37,2013-11-08 12:13:00,
2013-11-08 06:23:00,28.1,27.9,30.25,South,178,1.0,7.0,99,0.00,CLR,,0.00,WeatherDisplay:10.37,2013-11-08 12:23:00,
2013-11-08 06:33:00,28.0,27.8,30.26,South,187,1.0,8.0,99,0.00,CLR,,0.00,WeatherDisplay:10.37,2013-11-08 12:33:00,
2013-11-08 06:43:00,27.9,27.6,30.26,SSE,152,1.0,7.0,99,0.00,CLR,,0.00,WeatherDisplay:10.37,2013-11-08 12:43:00,
2013-11-08 06:53:00,27.5,27.3,30.26,SSE,154,2.0,6.0,99,0.00,CLR,,0.00,WeatherDisplay:10.37,2013-11-08 12:53:00,
2013-11-08 07:03:00,27.5,27.3,30.27,SSE,150,1.0,5.0,99,0.00,CLR,,0.00,WeatherDisplay:10.37,2013-11-08 13:03:00,
2013-11-08 07:13:00,27.5,27.3,30.27,SE,146,0.0,5.0,99,0.00,CLR,,0.00,WeatherDisplay:10.37,2013-11-08 13:13:00,
2013-11-08 07:23:00,28.5,28.3,30.27,SE,137,2.0,7.0,99,0.00,CLR,,0.00,WeatherDisplay:10.37,2013-11-08 13:23:00,
2013-11-08 07:33:00,31.6,31.3,30.27,SE,141,2.0,6.0,99,0.00,CLR,,0.00,WeatherDisplay:10.37,2013-11-08 13:33:00,
2013-11-08 07:43:00,33.4,32.6,30.27,South,176,2.0,7.0,97,0.00,CLR,,0.00,WeatherDisplay:10.37,2013-11-08 13:43:00,
2013-11-08 07:53:00,34.5,32.1,30.27,SSE,166,1.0,7.0,91,0.00,CLR,,0.00,WeatherDisplay:10.37,2013-11-08 13:53:00,
2013-11-08 08:03:00,36.3,32.5,30.27,South,182,0.0,8.0,86,0.00,CLR,,0.00,WeatherDisplay:10.37,2013-11-08 14:03:00,
2013-11-08 08:13:00,37.7,32.1,30.27,SSE,157,1.0,6.0,80,0.00,CLR,,0.00,WeatherDisplay:10.37,2013-11-08 14:13:00,
2013-11-08 08:23:00,37.4,31.5,30.27,SSE,152,1.0,8.0,79,0.00,CLR,,0.00,WeatherDisplay:10.37,2013-11-08 14:23:00,
2013-11-08 08:33:00,39.4,33.1,30.27,SSW,198,0.0,6.0,78,0.00,CLR,,0.00,WeatherDisplay:10.37,2013-11-08 14:33:00,
2013-11-08 08:43:00,39.9,31.6,30.27,SW,216,2.0,7.0,72,0.00,CLR,,0.00,WeatherDisplay:10.37,2013-11-08 14:43:00,
2013-11-08 08:53:00,41.0,32.3,30.27,South,176,3.0,6.0,71,0.00,CLR,,0.00,WeatherDisplay:10.37,2013-11-08 14:53:00,
2013-11-08 09:03:00,41.2,31.8,30.26,SSW,194,2.0,7.0,69,0.00,CLR,,0.00,WeatherDisplay:10.37,2013-11-08 15:03:00,
2013-11-08 09:13:00,42.6,32.8,30.26,South,175,1.0,6.0,68,0.00,CLR,,0.00,WeatherDisplay:10.37,2013-11-08 15:13:00,
2013-11-08 09:23:00,41.8,30.9,30.26,SSW,202,3.0,10.0,65,0.00,CLR,,0.00,WeatherDisplay:10.37,2013-11-08 15:23:00,
2013-11-08 09:33:00,39.3,31.1,30.25,SSW,194,5.0,10.0,72,0.00,CLR,,0.00,WeatherDisplay:10.37,2013-11-08 15:33:00,
2013-11-08 09:43:00,40.4,32.7,30.25,SSE,158,1.0,12.0,74,0.00,CLR,,0.00,WeatherDisplay:10.37,2013-11-08 15:43:00,
2013-11-08 09:53:00,41.7,31.5,30.25,SSW,193,5.0,16.0,67,0.00,CLR,,0.00,WeatherDisplay:10.37,2013-11-08 15:53:00,
2013-11-08 10:03:00,41.4,31.9,30.24,South,191,5.0,10.0,69,0.00,CLR,,0.00,WeatherDisplay:10.37,2013-11-08 16:03:00,
2013-11-08 10:13:00,40.5,31.4,30.24,South,191,3.0,13.0,70,0.00,CLR,,0.00,WeatherDisplay:10.37,2013-11-08 16:13:00,
2013-11-08 10:23:00,40.0,32.0,30.24,South,176,2.0,9.0,73,0.00,CLR,,0.00,WeatherDisplay:10.37,2013-11-08 16:23:00,
2013-11-08 10:33:00,40.3,31.6,30.24,South,188,3.0,9.0,71,0.00,CLR,,0.00,WeatherDisplay:10.37,2013-11-08 16:33:00,
2013-11-08 10:43:00,41.3,32.3,30.23,SSE,162,5.0,13.0,70,0.00,CLR,,0.00,WeatherDisplay:10.37,2013-11-08 16:43:00,
2013-11-08 10:53:00,42.6,32.8,30.22,SSW,198,5.0,10.0,68,0.00,CLR,,0.00,WeatherDisplay:10.37,2013-11-08 16:53:00,
2013-11-08 11:03:00,42.3,31.7,30.22,South,189,5.0,12.0,66,0.00,CLR,,0.00,WeatherDisplay:10.37,2013-11-08 17:03:00,
2013-11-08 11:13:00,42.1,32.6,30.22,SSW,206,5.0,16.0,69,0.00,CLR,,0.00,WeatherDisplay:10.37,2013-11-08 17:13:00,
2013-11-08 11:23:00,43.0,32.8,30.21,South,187,5.0,15.0,67,0.00,CLR,,0.00,WeatherDisplay:10.37,2013-11-08 17:23:00,
2013-11-08 11:33:00,42.4,32.6,30.20,South,169,5.0,12.0,68,0.00,CLR,,0.00,WeatherDisplay:10.37,2013-11-08 17:33:00,
2013-11-08 11:43:00,43.5,33.7,30.19,South,169,2.0,10.0,68,0.00,CLR,,0.00,WeatherDisplay:10.37,2013-11-08 17:43:00,
2013-11-08 11:53:00,44.7,34.4,30.19,SSW,200,1.0,13.0,67,0.00,CLR,,0.00,WeatherDisplay:10.37,2013-11-08 17:53:00,
2013-11-08 12:03:00,44.1,33.4,30.18,South,190,1.0,8.0,66,0.00,CLR,,0.00,WeatherDisplay:10.37,2013-11-08 18:03:00,
2013-11-08 12:13:00,44.6,33.2,30.18,SSE,159,6.0,10.0,64,0.00,CLR,,0.00,WeatherDisplay:10.37,2013-11-08 18:13:00,
2013-11-08 12:23:00,44.0,33.3,30.17,South,180,2.0,10.0,66,0.00,CLR,,0.00,WeatherDisplay:10.37,2013-11-08 18:23:00,
2013-11-08 12:33:00,44.1,33.0,30.17,South,190,5.0,13.0,65,0.00,CLR,,0.00,WeatherDisplay:10.37,2013-11-08 18:33:00,
2013-11-08 12:43:00,43.5,33.3,30.17,SSW,209,3.0,13.0,67,0.00,CLR,,0.00,WeatherDisplay:10.37,2013-11-08 18:43:00,
2013-11-08 12:53:00,44.1,33.8,30.16,SSW,196,3.0,17.0,67,0.00,CLR,,0.00,WeatherDisplay:10.37,2013-11-08 18:53:00,
2013-11-08 13:03:00,43.7,33.5,30.16,South,169,5.0,13.0,67,0.00,CLR,,0.00,WeatherDisplay:10.37,2013-11-08 19:03:00,
2013-11-08 13:13:00,44.1,33.8,30.15,South,183,2.0,14.0,67,0.00,CLR,,0.00,WeatherDisplay:10.37,2013-11-08 19:13:00,
2013-11-08 13:23:00,44.2,33.6,30.14,South,188,3.0,14.0,66,0.00,CLR,,0.00,WeatherDisplay:10.37,2013-11-08 19:23:00,
2013-11-08 13:33:00,44.3,33.2,30.14,South,190,6.0,15.0,65,0.00,CLR,,0.00,WeatherDisplay:10.37,2013-11-08 19:33:00,
2013-11-08 13:43:00,44.1,32.7,30.13,South,175,5.0,16.0,64,0.00,CLR,,0.00,WeatherDisplay:10.37,2013-11-08 19:43:00,
2013-11-08 13:53:00,44.1,33.4,30.13,SSE,152,5.0,12.0,66,0.00,CLR,,0.00,WeatherDisplay:10.37,2013-11-08 19:53:00,
2013-11-08 14:03:00,44.1,33.4,30.12,SSW,192,5.0,9.0,66,0.00,CLR,,0.00,WeatherDisplay:10.37,2013-11-08 20:03:00,
2013-11-08 14:13:00,38.1,31.9,30.15,North,0,0.0,0.0,78,0.00,CLR,,0.00,WeatherDisplay:10.37,2013-11-08 20:13:00,
2013-11-08 14:23:00,44.6,32.0,30.12,South,184,8.0,18.0,61,0.00,CLR,,0.00,WeatherDisplay:10.37,2013-11-08 20:23:00,
2013-11-08 14:33:00,44.3,31.3,30.11,SSE,158,7.0,14.0,60,0.00,CLR,,0.00,WeatherDisplay:10.37,2013-11-08 20:33:00,
2013-11-08 14:43:00,44.2,30.0,30.09,SSE,161,5.0,20.0,57,0.00,CLR,,0.00,WeatherDisplay:10.37,2013-11-08 20:43:00,
2013-11-08 14:53:00,44.2,30.8,30.09,SE,143,3.0,15.0,59,0.00,CLR,,0.00,WeatherDisplay:10.37,2013-11-08 20:53:00,
2013-11-08 15:03:00,44.2,31.2,30.08,SSE,150,3.0,16.0,60,0.00,CLR,,0.00,WeatherDisplay:10.37,2013-11-08 21:03:00,
2013-11-08 15:13:00,45.6,31.7,30.08,SSE,163,8.0,15.0,58,0.00,CLR,,0.00,WeatherDisplay:10.37,2013-11-08 21:13:00,
2013-11-08 15:23:00,45.8,30.9,30.08,South,176,6.0,22.0,56,0.00,CLR,,0.00,WeatherDisplay:10.37,2013-11-08 21:23:00,
2013-11-08 15:33:00,44.4,31.0,30.06,SSE,152,9.0,16.0,59,0.00,CLR,,0.00,WeatherDisplay:10.37,2013-11-08 21:33:00,
2013-11-08 15:43:00,43.8,31.2,30.06,SE,139,2.0,17.0,61,0.00,CLR,,0.00,WeatherDisplay:10.37,2013-11-08 21:43:00,
2013-11-08 15:53:00,43.2,31.5,30.06,SE,146,7.0,18.0,63,0.00,CLR,,0.00,WeatherDisplay:10.37,2013-11-08 21:53:00,
2013-11-08 16:03:00,43.0,31.6,30.05,SE,127,3.0,14.0,64,0.00,CLR,,0.00,WeatherDisplay:10.37,2013-11-08 22:03:00,
2013-11-08 16:13:00,42.6,31.7,30.05,SSE,164,7.0,17.0,65,0.00,CLR,,0.00,WeatherDisplay:10.37,2013-11-08 22:13:00,
2013-11-08 16:23:00,42.4,31.9,30.04,ESE,121,5.0,15.0,66,0.00,CLR,,0.00,WeatherDisplay:10.37,2013-11-08 22:23:00,
2013-11-08 16:33:00,42.3,32.1,30.04,SE,126,3.0,9.0,67,0.00,CLR,,0.00,WeatherDisplay:10.37,2013-11-08 22:33:00,
2013-11-08 16:43:00,42.1,32.3,30.04,SE,139,1.0,14.0,68,0.00,CLR,,0.00,WeatherDisplay:10.37,2013-11-08 22:43:00,
2013-11-08 16:53:00,41.9,32.8,30.03,SSE,163,9.0,14.0,70,0.00,CLR,,0.00,WeatherDisplay:10.37,2013-11-08 22:53:00,
2013-11-08 17:03:00,41.9,33.2,30.02,ESE,112,6.0,16.0,71,0.00,CLR,,0.00,WeatherDisplay:10.37,2013-11-08 23:03:00,
2013-11-08 17:13:00,41.9,33.5,30.02,SE,128,5.0,14.0,72,0.00,CLR,,0.00,WeatherDisplay:10.37,2013-11-08 23:13:00,
2013-11-08 17:23:00,42.3,33.9,30.02,SE,135,5.0,14.0,72,0.00,CLR,,0.00,WeatherDisplay:10.37,2013-11-08 23:23:00,
2013-11-08 17:33:00,42.4,33.7,30.01,SE,131,6.0,18.0,71,0.00,CLR,,0.00,WeatherDisplay:10.37,2013-11-08 23:33:00,
2013-11-08 17:43:00,42.4,33.7,30.01,ESE,117,6.0,14.0,71,0.00,CLR,,0.00,WeatherDisplay:10.37,2013-11-08 23:43:00,
2013-11-08 17:53:00,42.6,33.9,30.01,SE,145,6.0,20.0,71,0.00,CLR,,0.00,WeatherDisplay:10.37,2013-11-08 23:53:00,
2013-11-08 18:03:00,42.8,33.7,30.01,SSE,160,1.0,12.0,70,0.00,CLR,,0.00,WeatherDisplay:10.37,2013-11-09 00:03:00,
2013-11-08 18:13:00,43.0,33.5,30.02,SSE,168,6.0,17.0,69,0.00,CLR,,0.00,WeatherDisplay:10.37,2013-11-09 00:13:00,
2013-11-08 18:23:00,43.0,33.5,30.01,South,179,5.0,12.0,69,0.00,CLR,,0.00,WeatherDisplay:10.37,2013-11-09 00:23:00,
2013-11-08 18:33:00,43.0,33.5,30.00,SSE,165,5.0,15.0,69,0.00,CLR,,0.00,WeatherDisplay:10.37,2013-11-09 00:33:00,
2013-11-08 18:43:00,43.2,33.3,30.00,SSE,163,6.0,18.0,68,0.00,CLR,,0.00,WeatherDisplay:10.37,2013-11-09 00:43:00,
2013-11-08 18:53:00,43.2,32.9,30.00,SE,143,6.0,18.0,67,0.00,CLR,,0.00,WeatherDisplay:10.37,2013-11-09 00:53:00,
2013-11-08 19:03:00,43.2,32.9,30.00,SE,140,7.0,18.0,67,0.00,CLR,,0.00,WeatherDisplay:10.37,2013-11-09 01:03:00,
2013-11-08 19:13:00,43.2,32.9,30.00,SSE,163,5.0,17.0,67,0.00,CLR,,0.00,WeatherDisplay:10.37,2013-11-09 01:13:00,
2013-11-08 19:23:00,43.2,32.6,30.00,South,173,8.0,21.0,66,0.00,CLR,,0.00,WeatherDisplay:10.37,2013-11-09 01:23:00,
2013-11-08 19:33:00,43.1,32.6,29.99,SSE,162,7.0,15.0,66,0.00,CLR,,0.00,WeatherDisplay:10.37,2013-11-09 01:33:00,
2013-11-08 19:43:00,43.0,32.8,29.98,SSE,152,9.0,28.0,67,0.00,CLR,,0.00,WeatherDisplay:10.37,2013-11-09 01:43:00,
2013-11-08 19:53:00,43.0,32.8,29.97,SSE,159,10.0,25.0,67,0.00,CLR,,0.00,WeatherDisplay:10.37,2013-11-09 01:53:00,
2013-11-08 20:03:00,43.2,32.9,29.96,SSE,168,8.0,22.0,67,0.00,CLR,,0.00,WeatherDisplay:10.37,2013-11-09 02:03:00,
2013-11-08 20:13:00,43.2,33.3,29.96,South,190,7.0,26.0,68,0.00,CLR,,0.00,WeatherDisplay:10.37,2013-11-09 02:13:00,
2013-11-08 20:23:00,43.2,33.3,29.95,South,174,6.0,20.0,68,0.00,CLR,,0.00,WeatherDisplay:10.37,2013-11-09 02:23:00,
2013-11-08 20:33:00,43.2,33.7,29.95,South,189,7.0,26.0,69,0.00,CLR,,0.00,WeatherDisplay:10.37,2013-11-09 02:33:00,
2013-11-08 20:43:00,43.0,33.5,29.94,SSE,150,5.0,25.0,69,0.00,CLR,,0.00,WeatherDisplay:10.37,2013-11-09 02:43:00,
2013-11-08 20:53:00,43.2,33.7,29.94,SSE,155,9.0,23.0,69,0.00,CLR,,0.00,WeatherDisplay:10.37,2013-11-09 02:53:00,
2013-11-08 21:03:00,43.1,34.0,29.93,South,170,7.0,21.0,70,0.00,CLR,,0.00,WeatherDisplay:10.37,2013-11-09 03:03:00,
2013-11-08 21:13:00,43.2,34.0,29.92,South,190,6.0,32.0,70,0.00,CLR,,0.00,WeatherDisplay:10.37,2013-11-09 03:13:00,
2013-11-08 21:23:00,43.2,34.0,29.92,South,180,6.0,25.0,70,0.00,CLR,,0.00,WeatherDisplay:10.37,2013-11-09 03:23:00,
2013-11-08 21:33:00,43.3,34.2,29.90,SSW,203,12.0,25.0,70,0.00,CLR,,0.00,WeatherDisplay:10.37,2013-11-09 03:33:00,
2013-11-08 21:43:00,43.4,34.3,29.89,South,182,7.0,18.0,70,0.00,CLR,,0.00,WeatherDisplay:10.37,2013-11-09 03:43:00,
2013-11-08 21:53:00,43.7,34.6,29.89,SSW,203,6.0,26.0,70,0.00,CLR,,0.00,WeatherDisplay:10.37,2013-11-09 03:53:00,
2013-11-08 22:03:00,44.1,34.6,29.88,South,174,10.0,28.0,69,0.00,CLR,,0.00,WeatherDisplay:10.37,2013-11-09 04:03:00,
2013-11-08 22:13:00,44.2,34.7,29.87,SSW,201,5.0,22.0,69,0.00,CLR,,0.00,WeatherDisplay:10.37,2013-11-09 04:13:00,
2013-11-08 22:23:00,44.3,34.8,29.86,South,174,12.0,35.0,69,0.00,CLR,,0.00,WeatherDisplay:10.37,2013-11-09 04:23:00,
2013-11-08 22:33:00,44.4,35.6,29.84,SSW,192,7.0,26.0,71,0.00,CLR,,0.00,WeatherDisplay:10.37,2013-11-09 04:33:00,
2013-11-08 22:43:00,44.4,35.2,29.84,South,172,9.0,22.0,70,0.00,CLR,,0.00,WeatherDisplay:10.37,2013-11-09 04:43:00,
2013-11-08 22:53:00,44.8,35.2,29.83,SSW,201,8.0,31.0,69,0.00,CLR,,0.00,WeatherDisplay:10.37,2013-11-09 04:53:00,
2013-11-08 23:03:00,45.0,35.0,29.83,South,183,9.0,21.0,68,0.00,CLR,,0.00,WeatherDisplay:10.37,2013-11-09 05:03:00,
2013-11-08 23:13:00,45.0,35.4,29.82,South,183,10.0,26.0,69,0.00,CLR,,0.00,WeatherDisplay:10.37,2013-11-09 05:13:00,
2013-11-08 23:23:00,45.1,35.6,29.81,South,174,6.0,25.0,69,0.00,CLR,,0.00,WeatherDisplay:10.37,2013-11-09 05:23:00,
2013-11-08 23:33:00,45.5,35.5,29.80,South,180,5.0,26.0,68,0.00,CLR,,0.00,WeatherDisplay:10.37,2013-11-09 05:33:00,
2013-11-08 23:43:00,46.0,35.7,29.80,SSW,198,7.0,20.0,67,0.00,CLR,,0.00,WeatherDisplay:10.37,2013-11-09 05:43:00,
2013-11-08 23:53:00,46.4,36.0,29.79,SSW,204,8.0,24.0,67,0.00,CLR,,0.00,WeatherDisplay:10.37,2013-11-09 05:53:00,